timestamp,wind_dir_avg,wind_spd_max_dir,wind_spd_avg,wind_spd_gust,battery_voltage,lat,long
2018-02-21 00:00:00+00:00,60.0,62.0,12.4,15.05,,47.59359,-54.27349
2018-02-21 00:10:00+00:00,64.0,68.0,13.72,15.63,,47.59359,-54.27349
2018-02-21 00:20:00+00:00,56.0,58.0,12.12,15.0,,47.59359,-54.27349
2018-02-21 00:30:00+00:00,60.0,66.0,13.74,15.5,,47.59359,-54.27349
2018-02-21 00:40:00+00:00,54.0,69.0,10.23,12.65,,47.59359,-54.27349
2018-02-21 00:50:00+00:00,58.0,58.0,12.28,14.79,,47.59359,-54.27349
2018-02-21 01:00:00+00:00,65.0,69.0,12.77,15.48,,47.59359,-54.27349
2018-02-21 01:10:00+00:00,54.0,55.0,10.22,12.95,,47.59359,-54.27349
2018-02-21 01:20:00+00:00,61.0,62.0,11.84,14.48,,47.59359,-54.27349
2018-02-21 01:30:00+00:00,65.0,68.0,9.19,11.25,,47.59359,-54.27349
2018-02-21 01:40:00+00:00,59.0,64.0,9.25,10.9,,47.59359,-54.27349
2018-02-21 01:50:00+00:00,71.0,74.0,8.83,10.34,,47.59359,-54.27349
2018-02-21 02:00:00+00:00,65.0,69.0,9.62,11.56,,47.59359,-54.27349
2018-02-21 02:10:00+00:00,64.0,67.0,9.2,10.97,,47.59359,-54.27349
2018-02-21 02:20:00+00:00,60.0,61.0,8.45,11.15,,47.59359,-54.27349
2018-02-21 02:30:00+00:00,77.0,80.0,11.31,13.24,,47.59359,-54.27349
2018-02-21 02:40:00+00:00,58.0,59.0,9.19,11.31,,47.59359,-54.27349
2018-02-21 02:50:00+00:00,54.0,59.0,7.8,8.92,,47.59359,-54.27349
2018-02-21 03:00:00+00:00,72.0,73.0,8.08,9.22,,47.59359,-54.27349
2018-02-21 03:10:00+00:00,45.0,53.0,8.36,10.96,,47.59359,-54.27349
2018-02-21 03:20:00+00:00,57.0,60.0,8.5,10.53,,47.59359,-54.27349
2018-02-21 03:30:00+00:00,58.0,63.0,5.87,7.26,,47.59359,-54.27349
2018-02-21 03:40:00+00:00,66.0,70.0,6.84,7.52,,47.59359,-54.27349
2018-02-21 03:50:00+00:00,58.0,59.0,7.26,8.43,,47.59359,-54.27349
2018-02-21 04:00:00+00:00,71.0,68.0,8.77,10.85,,47.59359,-54.27349
2018-02-21 04:10:00+00:00,53.0,56.0,8.06,9.64,,47.59359,-54.27349
2018-02-21 04:20:00+00:00,69.0,67.0,7.98,9.89,,47.59359,-54.27349
2018-02-21 04:30:00+00:00,69.0,68.0,7.58,9.87,,47.59359,-54.27349
2018-02-21 04:40:00+00:00,53.0,59.0,8.43,11.42,,47.59359,-54.27349
2018-02-21 04:50:00+00:00,52.0,57.0,6.91,9.63,,47.59359,-54.27349
2018-02-21 05:00:00+00:00,60.0,61.0,8.87,11.07,,47.59359,-54.27349
2018-02-21 05:10:00+00:00,56.0,59.0,10.63,12.65,,47.59359,-54.27349
2018-02-21 05:20:00+00:00,63.0,63.0,9.16,10.69,,47.59359,-54.27349
2018-02-21 05:30:00+00:00,61.0,62.0,9.48,11.06,,47.59359,-54.27349
2018-02-21 05:40:00+00:00,69.0,69.0,9.97,11.33,,47.59359,-54.27349
2018-02-21 05:50:00+00:00,58.0,56.0,8.65,11.64,,47.59359,-54.27349
2018-02-21 06:00:00+00:00,53.0,51.0,10.97,12.68,,47.59359,-54.27349
2018-02-21 06:10:00+00:00,47.0,49.0,11.96,13.1,,47.59359,-54.27349
2018-02-21 06:20:00+00:00,55.0,64.0,10.49,12.03,,47.59359,-54.27349
2018-02-21 06:30:00+00:00,56.0,54.0,9.74,11.47,,47.59359,-54.27349
2018-02-21 06:40:00+00:00,51.0,46.0,9.21,10.95,,47.59359,-54.27349
2018-02-21 06:50:00+00:00,51.0,48.0,9.32,11.55,,47.59359,-54.27349
2018-02-21 07:00:00+00:00,60.0,68.0,9.19,10.31,,47.59359,-54.27349
2018-02-21 07:10:00+00:00,67.0,69.0,8.28,9.61,,47.59359,-54.27349
2018-02-21 07:20:00+00:00,60.0,57.0,6.57,8.16,,47.59359,-54.27349
2018-02-21 07:30:00+00:00,68.0,73.0,6.43,8.26,,47.59359,-54.27349
2018-02-21 07:40:00+00:00,65.0,63.0,6.58,7.66,,47.59359,-54.27349
2018-02-21 07:50:00+00:00,55.0,61.0,8.31,9.75,,47.59359,-54.27349
2018-02-21 08:00:00+00:00,63.0,67.0,6.94,8.57,,47.59359,-54.27349
2018-02-21 08:10:00+00:00,73.0,66.0,5.52,6.74,,47.59359,-54.27349
2018-02-21 08:20:00+00:00,70.0,70.0,6.19,7.72,,47.59359,-54.27349
2018-02-21 08:30:00+00:00,82.0,74.0,6.81,8.07,,47.59359,-54.27349
2018-02-21 08:40:00+00:00,67.0,69.0,5.93,7.04,,47.59359,-54.27349
2018-02-21 08:50:00+00:00,73.0,70.0,5.9,7.32,,47.59359,-54.27349
2018-02-21 09:00:00+00:00,76.0,75.0,5.62,7.39,,47.59359,-54.27349
2018-02-21 09:10:00+00:00,87.0,87.0,5.72,6.93,,47.59359,-54.27349
2018-02-21 09:20:00+00:00,75.0,89.0,4.71,6.49,,47.59359,-54.27349
2018-02-21 09:30:00+00:00,79.0,75.0,4.34,6.6,,47.59359,-54.27349
2018-02-21 09:40:00+00:00,81.0,77.0,4.81,5.91,,47.59359,-54.27349
2018-02-21 09:50:00+00:00,85.0,87.0,3.66,4.62,,47.59359,-54.27349
2018-02-21 10:00:00+00:00,69.0,72.0,4.71,5.49,,47.59359,-54.27349
2018-02-21 10:10:00+00:00,80.0,77.0,4.9,5.98,,47.59359,-54.27349
2018-02-21 10:20:00+00:00,79.0,79.0,5.62,6.19,,47.59359,-54.27349
2018-02-21 10:30:00+00:00,82.0,71.0,5.7,7.83,,47.59359,-54.27349
2018-02-21 10:40:00+00:00,72.0,82.0,6.34,8.08,,47.59359,-54.27349
2018-02-21 10:50:00+00:00,90.0,87.0,5.42,7.05,,47.59359,-54.27349
2018-02-21 11:00:00+00:00,68.0,66.0,6.89,7.6,,47.59359,-54.27349
2018-02-21 11:10:00+00:00,68.0,72.0,5.88,7.17,,47.59359,-54.27349
2018-02-21 11:20:00+00:00,92.0,94.0,4.22,6.52,,47.59359,-54.27349
2018-02-21 11:30:00+00:00,84.0,98.0,3.09,5.24,,47.59359,-54.27349
2018-02-21 11:40:00+00:00,79.0,71.0,5.99,7.38,,47.59359,-54.27349
2018-02-21 11:50:00+00:00,82.0,78.0,4.62,5.71,,47.59359,-54.27349
2018-02-21 12:00:00+00:00,78.0,76.0,4.59,5.48,,47.59359,-54.27349
2018-02-21 12:10:00+00:00,88.0,76.0,6.07,7.84,,47.59359,-54.27349
2018-02-21 12:20:00+00:00,93.0,90.0,4.86,6.71,,47.59359,-54.27349
2018-02-21 12:30:00+00:00,106.0,123.0,3.44,5.74,,47.59359,-54.27349
2018-02-21 12:40:00+00:00,111.0,116.0,3.48,5.51,,47.59359,-54.27349
2018-02-21 12:50:00+00:00,132.0,137.0,4.19,5.72,,47.59359,-54.27349
2018-02-21 13:00:00+00:00,100.0,92.0,3.85,5.7,,47.59359,-54.27349
2018-02-21 13:10:00+00:00,140.0,138.0,4.61,5.21,,47.59359,-54.27349
2018-02-21 13:20:00+00:00,154.0,142.0,5.04,7.1,,47.59359,-54.27349
2018-02-21 13:30:00+00:00,166.0,168.0,3.54,5.02,,47.59359,-54.27349
2018-02-21 13:40:00+00:00,178.0,197.0,4.95,5.93,,47.59359,-54.27349
2018-02-21 13:50:00+00:00,156.0,141.0,4.22,5.08,,47.59359,-54.27349
2018-02-21 14:00:00+00:00,186.0,185.0,4.44,5.15,,47.59359,-54.27349
2018-02-21 14:10:00+00:00,179.0,197.0,3.42,5.09,,47.59359,-54.27349
2018-02-21 14:20:00+00:00,178.0,165.0,3.18,4.23,,47.59359,-54.27349
2018-02-21 14:30:00+00:00,189.0,196.0,4.54,5.39,,47.59359,-54.27349
2018-02-21 14:40:00+00:00,212.0,210.0,3.87,4.5,,47.59359,-54.27349
2018-02-21 14:50:00+00:00,176.0,178.0,4.76,6.25,,47.59359,-54.27349
2018-02-21 15:00:00+00:00,201.0,203.0,5.11,5.9,,47.59359,-54.27349
2018-02-21 15:10:00+00:00,199.0,204.0,4.96,6.4,,47.59359,-54.27349
2018-02-21 15:20:00+00:00,208.0,203.0,5.19,6.26,,47.59359,-54.27349
2018-02-21 15:30:00+00:00,204.0,214.0,4.6,5.35,,47.59359,-54.27349
2018-02-21 15:40:00+00:00,215.0,217.0,5.43,6.36,,47.59359,-54.27349
2018-02-21 15:50:00+00:00,218.0,219.0,3.53,4.8,,47.59359,-54.27349
2018-02-21 16:00:00+00:00,232.0,231.0,5.42,6.57,,47.59359,-54.27349
2018-02-21 16:10:00+00:00,219.0,215.0,5.32,6.14,,47.59359,-54.27349
2018-02-21 16:20:00+00:00,203.0,207.0,5.21,5.82,,47.59359,-54.27349
2018-02-21 16:30:00+00:00,209.0,210.0,5.8,6.61,,47.59359,-54.27349
2018-02-21 16:40:00+00:00,218.0,226.0,8.08,10.08,,47.59359,-54.27349
2018-02-21 16:50:00+00:00,228.0,232.0,6.73,7.8,,47.59359,-54.27349
2018-02-21 17:00:00+00:00,218.0,222.0,8.1,9.22,,47.59359,-54.27349
2018-02-21 17:10:00+00:00,219.0,213.0,7.66,9.04,,47.59359,-54.27349
2018-02-21 17:20:00+00:00,222.0,223.0,9.71,12.26,,47.59359,-54.27349
2018-02-21 17:30:00+00:00,222.0,222.0,7.97,10.57,,47.59359,-54.27349
2018-02-21 17:40:00+00:00,211.0,212.0,8.91,9.39,,47.59359,-54.27349
2018-02-21 17:50:00+00:00,205.0,206.0,7.95,9.0,,47.59359,-54.27349
2018-02-21 18:00:00+00:00,217.0,212.0,10.54,11.78,,47.59359,-54.27349
2018-02-21 18:10:00+00:00,209.0,204.0,12.21,15.73,,47.59359,-54.27349
2018-02-21 18:20:00+00:00,208.0,201.0,10.63,14.31,,47.59359,-54.27349
2018-02-21 18:30:00+00:00,200.0,204.0,15.11,16.5,,47.59359,-54.27349
2018-02-21 18:40:00+00:00,214.0,204.0,12.21,16.0,,47.59359,-54.27349
2018-02-21 18:50:00+00:00,209.0,198.0,12.08,15.22,,47.59359,-54.27349
2018-02-21 19:00:00+00:00,208.0,207.0,11.87,13.49,,47.59359,-54.27349
2018-02-21 19:10:00+00:00,218.0,219.0,11.05,12.81,,47.59359,-54.27349
2018-02-21 19:20:00+00:00,214.0,211.0,13.48,16.27,,47.59359,-54.27349
2018-02-21 19:30:00+00:00,217.0,221.0,12.43,14.48,,47.59359,-54.27349
2018-02-21 19:40:00+00:00,217.0,222.0,14.41,16.47,,47.59359,-54.27349
2018-02-21 19:50:00+00:00,221.0,221.0,13.41,14.62,,47.59359,-54.27349
2018-02-21 20:00:00+00:00,219.0,220.0,13.58,15.63,,47.59359,-54.27349
2018-02-21 20:10:00+00:00,223.0,220.0,14.01,15.96,,47.59359,-54.27349
2018-02-21 20:20:00+00:00,220.0,221.0,13.56,15.6,,47.59359,-54.27349
2018-02-21 20:30:00+00:00,218.0,211.0,13.87,18.74,,47.59359,-54.27349
2018-02-21 20:40:00+00:00,216.0,216.0,13.09,15.46,,47.59359,-54.27349
2018-02-21 20:50:00+00:00,218.0,219.0,12.58,14.61,,47.59359,-54.27349
2018-02-21 21:00:00+00:00,216.0,221.0,13.37,15.81,,47.59359,-54.27349
2018-02-21 21:10:00+00:00,216.0,218.0,10.62,13.45,,47.59359,-54.27349
2018-02-21 21:20:00+00:00,217.0,220.0,12.76,14.95,,47.59359,-54.27349
2018-02-21 21:30:00+00:00,220.0,223.0,13.8,16.16,,47.59359,-54.27349
2018-02-21 21:40:00+00:00,222.0,222.0,12.16,14.82,,47.59359,-54.27349
2018-02-21 21:50:00+00:00,219.0,218.0,13.58,16.19,,47.59359,-54.27349
2018-02-21 22:00:00+00:00,222.0,225.0,14.98,18.12,,47.59359,-54.27349
2018-02-21 22:10:00+00:00,223.0,232.0,13.71,16.08,,47.59359,-54.27349
2018-02-21 22:20:00+00:00,222.0,218.0,13.53,15.0,,47.59359,-54.27349
2018-02-21 22:30:00+00:00,224.0,222.0,12.32,14.54,,47.59359,-54.27349
2018-02-21 22:40:00+00:00,225.0,219.0,13.4,15.57,,47.59359,-54.27349
2018-02-21 22:50:00+00:00,223.0,224.0,13.17,15.1,,47.59359,-54.27349
2018-02-21 23:00:00+00:00,229.0,229.0,14.95,16.6,,47.59359,-54.27349
2018-02-21 23:10:00+00:00,227.0,228.0,15.53,18.16,,47.59359,-54.27349
2018-02-21 23:20:00+00:00,226.0,230.0,14.46,16.3,,47.59359,-54.27349
2018-02-21 23:30:00+00:00,225.0,223.0,13.81,15.33,,47.59359,-54.27349
2018-02-21 23:40:00+00:00,224.0,227.0,16.71,19.52,,47.59359,-54.27349
2018-02-21 23:50:00+00:00,228.0,231.0,15.38,18.23,,47.59359,-54.27349
